Location: Madrid
(40.4000°N, 3.6830°W)
Time: 13:07:44
(UTC+01:00)

ISS - Pass Details

Date: 10 December 2019
Orbit: 411 x 421 km, 51.6° (Epoch: 11 December)

Event Time Altitude Azimuth Distance (km) Brightness Sun altitude
Rises 18:22:50 0° 309° (NW) 2,357 0.4 -6.7°
Reaches altitude 10° 18:24:58 10° 315° (NW) 1,494 -0.7 -7.1°
Maximum altitude 18:28:15 52° 33° (NNE) 526 -3.6 -7.6°
Drops below altitude 10° 18:31:32 10° 111° (ESE) 1,492 -1.4 -8.2°
Enters shadow 18:33:05 - 115° (ESE) 2,117 -0.6 -8.5°
